Location: Deuil
(48.9767°N, 2.3272°E)
Time: 02:59:21
(UTC+00:00)

Cosmos 2360 Rocket - Pass Details

Date: 30 May 2022
Orbit: 832 x 846 km, 71.0° (Epoch: 03 July)

Event Time Altitude Azimuth Distance (km) Brightness Sun altitude
Rises 00:17:15 0° 262° (W) 3,386 5.2 -19.0°
Reaches altitude 10° 00:20:30 10° 281° (W) 2,458 4.6 -18.9°
Maximum altitude 00:24:17 18° 323° (NW) 1,956 4.6 -18.8°
Drops below altitude 10° 00:28:06 10° 6° (N) 2,472 5.9 -18.7°
Sets 00:31:24 0° 25° (NNE) 3,413 6.8 -18.6°
